This is the latest recevied weather packets stored in our database for station/object KD8JAM. If no packets are shown the sender has not sent any weather packets the latest 10 day(s).
| Time | Temp. | Humidity | Pressure | Rain* | Wind** | Luminosity | Snow |
|---|---|---|---|---|---|---|---|
| 1778092836 | 3.89° C | 71% | 1013.2 hPa | 0 mm | - | 743 W/m² | - |
| 1778092532 | 3.33° C | 74% | 1013.4 hPa | 0 mm | - | 720 W/m² | - |
| 1778092229 | 3.89° C | 73% | 1013.4 hPa | 0 mm | - | 759 W/m² | - |
| 1778091926 | 3.89° C | 75% | 1013.4 hPa | 0 mm | - | 724 W/m² | - |
| 1778091623 | 3.89° C | 73% | 1013.5 hPa | 0 mm | - | 840 W/m² | - |
| 1778091321 | 3.33° C | 73% | 1013.3 hPa | 0 mm | - | 939 W/m² | - |
| 1778091018 | 3.89° C | 73% | 1013.3 hPa | 0 mm | - | 512 W/m² | - |
| 1778090714 | 3.89° C | 71% | 1013.3 hPa | 0 mm | - | 746 W/m² | - |
| 1778090411 | 3.89° C | 71% | 1013.3 hPa | 0 mm | - | 684 W/m² | - |
| 1778090108 | 3.89° C | 74% | 1013.5 hPa | 0 mm | - | 754 W/m² | - |
| 1778089804 | 3.33° C | 72% | 1013.6 hPa | 0 mm | - | 737 W/m² | - |
| 1778089503 | 3.33° C | 75% | 1013.6 hPa | 0 mm | - | 709 W/m² | - |
| 1778089198 | 3.89° C | 73% | 1013.5 hPa | 0 mm | - | 738 W/m² | - |
| 1778088896 | 3.33° C | 76% | 1013.6 hPa | 0 mm | - | 468 W/m² | - |
| 1778088592 | 3.89° C | 76% | 1013.6 hPa | 0 mm | - | 563 W/m² | - |
| 1778088290 | 3.89° C | 75% | 1013.5 hPa | 0 mm | - | 676 W/m² | - |
| 1778087986 | 4.44° C | 74% | 1013.5 hPa | 0 mm | - | 546 W/m² | - |
| 1778087683 | 4.44° C | 73% | 1013.6 hPa | 0 mm | - | 831 W/m² | - |
| 1778087376 | 3.89° C | 75% | 1013.7 hPa | 0 mm | - | 838 W/m² | - |
| 1778087072 | 4.44° C | 76% | 1013.5 hPa | 0 mm | - | 790 W/m² | - |
| 1778086771 | 4.44° C | 75% | 1013.5 hPa | 0 mm | - | 920 W/m² | - |
| 1778086468 | 3.89° C | 76% | 1013.5 hPa | 0 mm | - | 960 W/m² | - |
| 1778086158 | 3.89° C | 75% | 1013.7 hPa | 0 mm | - | 311 W/m² | - |
| 1778085855 | 3.33° C | 76% | 1013.6 hPa | 0 mm | - | 374 W/m² | - |
| 1778085554 | 3.33° C | 75% | 1013.4 hPa | 0 mm | - | 614 W/m² | - |
* Rain latest hour (hover to see other rain measurements)
** Current wind speed in m/s (hover to see current wind gust speed)